COSMOS 2084

Last updated on Mon Sep 21 2026 00:02:08 GMT+0000 (Coordinated Universal Time)

1 20663U 90055A 26263.45887511 .00001366 00000+0 10577-3 0 9992 2 20663 62.7901 30.8261 0017990 349.9376 10.1362 15.06443961965654
UTC large
Height (km)
Speed (km/s)
/
Latitude / Longitude
Inclination (degrees)
Orbital Period (minutes)
Azimuth
Elevation
Range (km)
Doppler Factor

Next 0 passes for location: London (51.5072 / 0.1276)

No passes found over London.
COSMOS 2084